Location: Ferintosh
(52.7647°N, 112.9692°W)
Time: 18:01:42
(UTC+00:00)

S-56A Canister/Altair - Pass Details

Date: 21 May 2024
Orbit: 637 x 2489 km, 38.9° (Epoch: 15 June)

Event Time Altitude Azimuth Distance (km) Brightness Sun altitude
Rises 13:31:29 0° 214° (SW) 5,805 11.6 16.5°
Reaches altitude 10° 13:36:38 10° 202° (SSW) 4,534 11.2 17.3°
Maximum altitude 13:44:59 23° 158° (SSE) 3,080 10.9 18.5°
Drops below altitude 10° 13:51:30 10° 111° (ESE) 3,445 12.1 19.5°
Sets 13:54:45 0° 97° (E) 4,136 12.7 20.0°
